Time,TemperatureF,DewpointF,PressureIn,WindDirection,WindDirectionDegrees,WindSpeedMPH,WindSpeedGustMPH,Humidity,HourlyPrecipIn,Conditions,Clouds,dailyrainin,SoftwareType,DateUTC
2013-02-14 00:17:00,37.0,23.0,29.67,WNW,292,3.0,3.0,59,0.00,,,0.00,TxWx,2013-02-14 05:17:00,
2013-02-14 00:22:00,37.0,23.0,29.67,NE,45,1.0,1.0,59,0.00,,,0.00,TxWx,2013-02-14 05:22:00,
2013-02-14 00:27:00,37.0,23.0,29.67,NE,45,1.0,1.0,59,0.00,,,0.00,TxWx,2013-02-14 05:27:00,
2013-02-14 00:33:00,37.0,23.0,29.68,NNE,22,2.0,3.0,59,0.00,,,0.00,TxWx,2013-02-14 05:33:00,
2013-02-14 00:38:00,37.0,23.0,29.68,NNW,337,1.0,2.0,59,0.00,,,0.00,TxWx,2013-02-14 05:38:00,
2013-02-14 00:43:00,37.0,23.0,29.68,NNE,22,0.0,0.0,59,0.00,,,0.00,TxWx,2013-02-14 05:43:00,
2013-02-14 00:48:00,37.0,23.0,29.69,SE,135,1.0,1.0,59,0.00,,,0.00,TxWx,2013-02-14 05:48:00,
2013-02-14 00:53:00,37.0,23.0,29.69,ESE,112,1.0,1.0,59,0.00,,,0.00,TxWx,2013-02-14 05:53:00,
2013-02-14 01:10:00,37.0,23.0,29.69,NW,315,1.0,2.0,60,0.00,,,0.00,TxWx,2013-02-14 06:10:00,
2013-02-14 01:15:00,36.0,22.0,29.69,NW,315,1.0,1.0,60,0.00,,,0.00,TxWx,2013-02-14 06:15:00,
2013-02-14 01:21:00,36.0,23.0,29.69,WNW,292,1.0,1.0,61,0.00,,,0.00,TxWx,2013-02-14 06:21:00,
2013-02-14 01:26:00,36.0,23.0,29.69,East,90,1.0,1.0,62,0.00,,,0.00,TxWx,2013-02-14 06:26:00,
2013-02-14 01:31:00,36.0,23.0,29.70,NNE,22,0.0,0.0,62,0.00,,,0.00,TxWx,2013-02-14 06:31:00,
2013-02-14 01:37:00,36.0,23.0,29.70,NNW,337,1.0,2.0,63,0.00,,,0.00,TxWx,2013-02-14 06:37:00,
2013-02-14 01:42:00,36.0,23.0,29.70,NNE,22,3.0,3.0,63,0.00,,,0.00,TxWx,2013-02-14 06:42:00,
2013-02-14 01:47:00,36.0,23.0,29.70,NW,315,1.0,2.0,63,0.00,,,0.00,TxWx,2013-02-14 06:47:00,
2013-02-14 01:53:00,37.0,24.0,29.70,NNW,337,1.0,2.0,62,0.00,,,0.00,TxWx,2013-02-14 06:53:00,
2013-02-14 01:58:00,37.0,24.0,29.70,ENE,67,1.0,1.0,62,0.00,,,0.00,TxWx,2013-02-14 06:58:00,
2013-02-14 02:03:00,37.0,24.0,29.70,NNE,22,2.0,2.0,62,0.00,,,0.00,TxWx,2013-02-14 07:03:00,
2013-02-14 02:08:00,37.0,24.0,29.70,North,0,4.0,4.0,61,0.00,,,0.00,TxWx,2013-02-14 07:08:00,
2013-02-14 02:13:00,37.0,24.0,29.71,NNW,337,1.0,2.0,61,0.00,,,0.00,TxWx,2013-02-14 07:13:00,
2013-02-14 02:18:00,37.0,24.0,29.71,North,0,2.0,3.0,61,0.00,,,0.00,TxWx,2013-02-14 07:18:00,
2013-02-14 02:23:00,37.0,23.0,29.71,North,0,3.0,3.0,60,0.00,,,0.00,TxWx,2013-02-14 07:23:00,
2013-02-14 02:29:00,37.0,23.0,29.71,North,0,2.0,3.0,60,0.00,,,0.00,TxWx,2013-02-14 07:29:00,
2013-02-14 02:34:00,37.0,23.0,29.72,NNE,22,2.0,3.0,59,0.00,,,0.00,TxWx,2013-02-14 07:34:00,
2013-02-14 02:39:00,37.0,23.0,29.72,NE,45,2.0,2.0,59,0.00,,,0.00,TxWx,2013-02-14 07:39:00,
2013-02-14 02:44:00,37.0,23.0,29.72,NNE,22,2.0,2.0,60,0.00,,,0.00,TxWx,2013-02-14 07:44:00,
2013-02-14 02:49:00,36.0,23.0,29.73,South,180,0.0,1.0,61,0.00,,,0.00,TxWx,2013-02-14 07:49:00,
2013-02-14 02:54:00,36.0,23.0,29.73,SSW,202,0.0,1.0,62,0.00,,,0.00,TxWx,2013-02-14 07:54:00,
2013-02-14 02:59:00,35.0,22.0,29.74,SSW,202,0.0,0.0,62,0.00,,,0.00,TxWx,2013-02-14 07:59:00,
2013-02-14 03:04:00,35.0,22.0,29.74,South,180,1.0,1.0,63,0.00,,,0.00,TxWx,2013-02-14 08:04:00,
2013-02-14 03:10:00,35.0,23.0,29.74,SE,135,1.0,1.0,64,0.00,,,0.00,TxWx,2013-02-14 08:10:00,
2013-02-14 03:15:00,35.0,23.0,29.74,North,0,0.0,0.0,64,0.00,,,0.00,TxWx,2013-02-14 08:15:00,
2013-02-14 03:20:00,34.0,22.0,29.74,ENE,67,1.0,1.0,64,0.00,,,0.00,TxWx,2013-02-14 08:20:00,
2013-02-14 03:25:00,34.0,22.0,29.74,WSW,247,0.0,0.0,65,0.00,,,0.00,TxWx,2013-02-14 08:25:00,
2013-02-14 03:30:00,33.0,22.0,29.74,WSW,247,0.0,0.0,65,0.00,,,0.00,TxWx,2013-02-14 08:30:00,
2013-02-14 03:35:00,33.0,22.0,29.74,WSW,247,0.0,0.0,66,0.00,,,0.00,TxWx,2013-02-14 08:35:00,
2013-02-14 03:40:00,33.0,22.0,29.74,SE,135,0.0,0.0,66,0.00,,,0.00,TxWx,2013-02-14 08:40:00,
2013-02-14 03:45:00,32.0,21.0,29.74,SE,135,0.0,1.0,66,0.00,,,0.00,TxWx,2013-02-14 08:45:00,
2013-02-14 03:51:00,32.0,21.0,29.74,ENE,67,0.0,0.0,67,0.00,,,0.00,TxWx,2013-02-14 08:51:00,
2013-02-14 03:56:00,32.0,21.0,29.75,WNW,292,0.0,0.0,67,0.00,,,0.00,TxWx,2013-02-14 08:56:00,
2013-02-14 04:01:00,32.0,21.0,29.75,West,270,0.0,1.0,68,0.00,,,0.00,TxWx,2013-02-14 09:01:00,
2013-02-14 04:06:00,31.0,21.0,29.75,SSW,202,0.0,1.0,68,0.00,,,0.00,TxWx,2013-02-14 09:06:00,
2013-02-14 04:11:00,31.0,21.0,29.75,SE,135,0.0,1.0,69,0.00,,,0.00,TxWx,2013-02-14 09:11:00,
2013-02-14 04:16:00,31.0,21.0,29.75,SE,135,0.0,1.0,70,0.00,,,0.00,TxWx,2013-02-14 09:16:00,
2013-02-14 04:21:00,31.0,21.0,29.76,WNW,292,1.0,1.0,70,0.00,,,0.00,TxWx,2013-02-14 09:21:00,
2013-02-14 04:26:00,31.0,21.0,29.76,WSW,247,0.0,1.0,70,0.00,,,0.00,TxWx,2013-02-14 09:26:00,
2013-02-14 04:32:00,31.0,21.0,29.77,SSW,202,1.0,1.0,70,0.00,,,0.00,TxWx,2013-02-14 09:32:00,
2013-02-14 04:37:00,31.0,22.0,29.77,SSW,202,1.0,1.0,71,0.00,,,0.00,TxWx,2013-02-14 09:37:00,
2013-02-14 04:42:00,30.0,21.0,29.77,SSE,157,0.0,1.0,71,0.00,,,0.00,TxWx,2013-02-14 09:42:00,
2013-02-14 04:47:00,30.0,21.0,29.77,SSE,157,0.0,1.0,72,0.00,,,0.00,TxWx,2013-02-14 09:47:00,
2013-02-14 04:53:00,30.0,21.0,29.77,SSW,202,1.0,1.0,72,0.00,,,0.00,TxWx,2013-02-14 09:53:00,
2013-02-14 04:58:00,30.0,21.0,29.77,SSW,202,0.0,1.0,72,0.00,,,0.00,TxWx,2013-02-14 09:58:00,
2013-02-14 05:03:00,30.0,21.0,29.77,SSW,202,1.0,1.0,72,0.00,,,0.00,TxWx,2013-02-14 10:03:00,
2013-02-14 05:08:00,30.0,21.0,29.77,West,270,1.0,1.0,73,0.00,,,0.00,TxWx,2013-02-14 10:08:00,
2013-02-14 05:13:00,30.0,21.0,29.78,WNW,292,1.0,1.0,73,0.00,,,0.00,TxWx,2013-02-14 10:13:00,
2013-02-14 05:18:00,30.0,21.0,29.78,NNW,337,1.0,1.0,73,0.00,,,0.00,TxWx,2013-02-14 10:18:00,
2013-02-14 05:23:00,30.0,22.0,29.79,NW,315,1.0,1.0,74,0.00,,,0.00,TxWx,2013-02-14 10:23:00,
2013-02-14 05:28:00,30.0,22.0,29.79,NNW,337,0.0,0.0,74,0.00,,,0.00,TxWx,2013-02-14 10:28:00,
2013-02-14 05:33:00,30.0,22.0,29.79,ENE,67,1.0,1.0,74,0.00,,,0.00,TxWx,2013-02-14 10:33:00,
2013-02-14 05:39:00,30.0,22.0,29.79,East,90,0.0,0.0,74,0.00,,,0.00,TxWx,2013-02-14 10:39:00,
2013-02-14 05:44:00,30.0,22.0,29.79,East,90,0.0,0.0,74,0.00,,,0.00,TxWx,2013-02-14 10:44:00,
2013-02-14 05:49:00,29.0,21.0,29.79,WSW,247,1.0,1.0,74,0.00,,,0.00,TxWx,2013-02-14 10:49:00,
2013-02-14 05:54:00,29.0,21.0,29.79,WSW,247,0.0,0.0,74,0.00,,,0.00,TxWx,2013-02-14 10:54:00,
2013-02-14 05:59:00,29.0,21.0,29.79,WSW,247,0.0,0.0,75,0.00,,,0.00,TxWx,2013-02-14 10:59:00,
2013-02-14 06:04:00,29.0,21.0,29.79,SSE,157,0.0,0.0,75,0.00,,,0.00,TxWx,2013-02-14 11:04:00,
2013-02-14 06:09:00,29.0,21.0,29.79,SSE,157,0.0,0.0,75,0.00,,,0.00,TxWx,2013-02-14 11:09:00,
2013-02-14 06:14:00,28.0,20.0,29.79,NE,45,0.0,0.0,75,0.00,,,0.00,TxWx,2013-02-14 11:14:00,
2013-02-14 06:20:00,28.0,20.0,29.79,South,180,1.0,1.0,75,0.00,,,0.00,TxWx,2013-02-14 11:20:00,
2013-02-14 06:25:00,29.0,21.0,29.80,SSW,202,1.0,1.0,76,0.00,,,0.00,TxWx,2013-02-14 11:25:00,
2013-02-14 06:30:00,29.0,21.0,29.80,SSW,202,0.0,0.0,76,0.00,,,0.00,TxWx,2013-02-14 11:30:00,
2013-02-14 06:35:00,28.0,20.0,29.80,SSW,202,0.0,0.0,76,0.00,,,0.00,TxWx,2013-02-14 11:35:00,
2013-02-14 06:40:00,28.0,20.0,29.80,ESE,112,0.0,0.0,76,0.00,,,0.00,TxWx,2013-02-14 11:40:00,
2013-02-14 06:45:00,28.0,20.0,29.80,ENE,67,0.0,1.0,76,0.00,,,0.00,TxWx,2013-02-14 11:45:00,
2013-02-14 06:51:00,29.0,22.0,29.81,SSE,157,0.0,0.0,77,0.00,,,0.00,TxWx,2013-02-14 11:51:00,
2013-02-14 06:56:00,29.0,22.0,29.81,NNW,337,1.0,1.0,77,0.00,,,0.00,TxWx,2013-02-14 11:56:00,
2013-02-14 07:01:00,29.0,22.0,29.81,North,0,1.0,1.0,77,0.00,,,0.00,TxWx,2013-02-14 12:01:00,
2013-02-14 07:06:00,28.0,21.0,29.82,East,90,1.0,1.0,77,0.00,,,0.00,TxWx,2013-02-14 12:06:00,
2013-02-14 07:11:00,28.0,21.0,29.82,WNW,292,0.0,0.0,77,0.00,,,0.00,TxWx,2013-02-14 12:11:00,
2013-02-14 07:17:00,28.0,21.0,29.82,NW,315,1.0,1.0,77,0.00,,,0.00,TxWx,2013-02-14 12:17:00,
2013-02-14 07:22:00,29.0,22.0,29.83,NNW,337,1.0,1.0,77,0.00,,,0.00,TxWx,2013-02-14 12:22:00,
2013-02-14 07:27:00,29.0,22.0,29.83,North,0,1.0,1.0,77,0.00,,,0.00,TxWx,2013-02-14 12:27:00,
2013-02-14 07:32:00,29.0,22.0,29.84,NNE,22,1.0,1.0,77,0.00,,,0.00,TxWx,2013-02-14 12:32:00,
2013-02-14 07:37:00,30.0,23.0,29.84,North,0,1.0,1.0,77,0.00,,,0.00,TxWx,2013-02-14 12:37:00,
2013-02-14 07:42:00,30.0,23.0,29.85,NNE,22,1.0,2.0,78,0.00,,,0.00,TxWx,2013-02-14 12:42:00,
2013-02-14 07:48:00,30.0,23.0,29.85,NNE,22,3.0,3.0,78,0.00,,,0.00,TxWx,2013-02-14 12:48:00,
2013-02-14 07:53:00,31.0,24.0,29.85,North,0,1.0,1.0,78,0.00,,,0.00,TxWx,2013-02-14 12:53:00,
2013-02-14 07:58:00,32.0,25.0,29.86,NNE,22,2.0,3.0,77,0.00,,,0.00,TxWx,2013-02-14 12:58:00,
2013-02-14 08:03:00,32.0,25.0,29.86,East,90,5.0,5.0,77,0.00,,,0.00,TxWx,2013-02-14 13:03:00,
2013-02-14 08:08:00,33.0,25.0,29.86,NNE,22,5.0,5.0,76,0.00,,,0.00,TxWx,2013-02-14 13:08:00,
2013-02-14 08:13:00,33.0,25.0,29.86,NNE,22,6.0,6.0,75,0.00,,,0.00,TxWx,2013-02-14 13:13:00,
2013-02-14 08:19:00,34.0,25.0,29.86,NNE,22,4.0,4.0,73,0.00,,,0.00,TxWx,2013-02-14 13:19:00,
2013-02-14 08:24:00,34.0,25.0,29.86,ENE,67,4.0,4.0,72,0.00,,,0.00,TxWx,2013-02-14 13:24:00,
2013-02-14 08:29:00,35.0,25.0,29.86,ENE,67,4.0,5.0,71,0.00,,,0.00,TxWx,2013-02-14 13:29:00,
2013-02-14 08:34:00,35.0,25.0,29.87,NNE,22,4.0,5.0,69,0.00,,,0.00,TxWx,2013-02-14 13:34:00,
2013-02-14 08:39:00,35.0,25.0,29.87,NNE,22,4.0,6.0,68,0.00,,,0.00,TxWx,2013-02-14 13:39:00,
2013-02-14 08:44:00,36.0,25.0,29.87,ENE,67,5.0,5.0,67,0.00,,,0.00,TxWx,2013-02-14 13:44:00,
2013-02-14 08:50:00,36.0,25.0,29.87,NNE,22,3.0,4.0,66,0.00,,,0.00,TxWx,2013-02-14 13:50:00,
2013-02-14 08:55:00,36.0,24.0,29.88,East,90,4.0,5.0,65,0.00,,,0.00,TxWx,2013-02-14 13:55:00,
2013-02-14 09:00:00,36.0,24.0,29.88,ENE,67,5.0,6.0,64,0.00,,,0.00,TxWx,2013-02-14 14:00:00,
2013-02-14 09:05:00,36.0,24.0,29.88,ENE,67,5.0,6.0,63,0.00,,,0.00,TxWx,2013-02-14 14:05:00,
2013-02-14 09:10:00,37.0,24.0,29.88,East,90,1.0,3.0,63,0.00,,,0.00,TxWx,2013-02-14 14:10:00,
2013-02-14 09:16:00,37.0,24.0,29.88,ENE,67,5.0,5.0,63,0.00,,,0.00,TxWx,2013-02-14 14:16:00,
2013-02-14 09:21:00,37.0,24.0,29.88,NE,45,3.0,4.0,62,0.00,,,0.00,TxWx,2013-02-14 14:21:00,
2013-02-14 09:26:00,37.0,24.0,29.88,ENE,67,3.0,3.0,61,0.00,,,0.00,TxWx,2013-02-14 14:26:00,
2013-02-14 09:31:00,38.0,25.0,29.89,ENE,67,4.0,5.0,61,0.00,,,0.00,TxWx,2013-02-14 14:31:00,
2013-02-14 09:37:00,38.0,24.0,29.89,NE,45,5.0,5.0,60,0.00,,,0.00,TxWx,2013-02-14 14:37:00,
2013-02-14 09:42:00,38.0,24.0,29.89,NNW,337,3.0,3.0,60,0.00,,,0.00,TxWx,2013-02-14 14:42:00,
2013-02-14 09:47:00,39.0,25.0,29.90,NNE,22,3.0,3.0,59,0.00,,,0.00,TxWx,2013-02-14 14:47:00,
2013-02-14 09:52:00,39.0,25.0,29.90,East,90,2.0,3.0,59,0.00,,,0.00,TxWx,2013-02-14 14:52:00,
2013-02-14 09:57:00,39.0,24.0,29.90,East,90,2.0,3.0,58,0.00,,,0.00,TxWx,2013-02-14 14:57:00,
2013-02-14 10:02:00,40.0,25.0,29.90,NNW,337,6.0,6.0,57,0.00,,,0.00,TxWx,2013-02-14 15:02:00,
2013-02-14 10:08:00,40.0,25.0,29.90,NNW,337,2.0,5.0,56,0.00,,,0.00,TxWx,2013-02-14 15:08:00,
2013-02-14 10:13:00,40.0,24.0,29.90,NNW,337,8.0,8.0,55,0.00,,,0.00,TxWx,2013-02-14 15:13:00,
2013-02-14 10:18:00,40.0,24.0,29.90,NNE,22,2.0,4.0,55,0.00,,,0.00,TxWx,2013-02-14 15:18:00,
2013-02-14 10:23:00,40.0,24.0,29.89,North,0,5.0,5.0,55,0.00,,,0.00,TxWx,2013-02-14 15:23:00,
2013-02-14 10:28:00,40.0,23.0,29.90,NW,315,6.0,6.0,54,0.00,,,0.00,TxWx,2013-02-14 15:28:00,
2013-02-14 10:33:00,40.0,23.0,29.90,NW,315,6.0,6.0,53,0.00,,,0.00,TxWx,2013-02-14 15:33:00,
2013-02-14 10:38:00,41.0,24.0,29.89,North,0,3.0,3.0,53,0.00,,,0.00,TxWx,2013-02-14 15:38:00,
2013-02-14 10:43:00,41.0,24.0,29.89,NNW,337,6.0,6.0,52,0.00,,,0.00,TxWx,2013-02-14 15:43:00,
2013-02-14 10:48:00,41.0,24.0,29.89,North,0,6.0,6.0,52,0.00,,,0.00,TxWx,2013-02-14 15:48:00,
2013-02-14 10:53:00,41.0,24.0,29.89,North,0,6.0,7.0,52,0.00,,,0.00,TxWx,2013-02-14 15:53:00,
2013-02-14 10:58:00,41.0,24.0,29.90,NNE,22,7.0,8.0,52,0.00,,,0.00,TxWx,2013-02-14 15:58:00,
2013-02-14 11:03:00,41.0,24.0,29.89,WNW,292,7.0,8.0,52,0.00,,,0.00,TxWx,2013-02-14 16:03:00,
2013-02-14 11:09:00,41.0,24.0,29.89,NW,315,6.0,10.0,52,0.00,,,0.00,TxWx,2013-02-14 16:09:00,
2013-02-14 11:14:00,42.0,25.0,29.89,North,0,9.0,10.0,53,0.00,,,0.00,TxWx,2013-02-14 16:14:00,
2013-02-14 11:19:00,41.0,24.0,29.89,NNW,337,4.0,5.0,52,0.00,,,0.00,TxWx,2013-02-14 16:19:00,
2013-02-14 11:24:00,41.0,23.0,29.89,NE,45,4.0,6.0,52,0.00,,,0.00,TxWx,2013-02-14 16:24:00,
2013-02-14 11:29:00,41.0,23.0,29.89,North,0,6.0,8.0,52,0.00,,,0.00,TxWx,2013-02-14 16:29:00,
2013-02-14 11:34:00,42.0,25.0,29.89,NNE,22,7.0,7.0,52,0.00,,,0.00,TxWx,2013-02-14 16:34:00,
2013-02-14 11:39:00,42.0,24.0,29.88,WNW,292,6.0,6.0,52,0.00,,,0.00,TxWx,2013-02-14 16:39:00,
2013-02-14 11:45:00,42.0,24.0,29.88,North,0,4.0,5.0,52,0.00,,,0.00,TxWx,2013-02-14 16:45:00,
2013-02-14 11:50:00,42.0,24.0,29.88,NNE,22,9.0,11.0,51,0.00,,,0.00,TxWx,2013-02-14 16:50:00,
2013-02-14 11:55:00,42.0,24.0,29.88,NNE,22,11.0,11.0,51,0.00,,,0.00,TxWx,2013-02-14 16:55:00,
2013-02-14 12:00:00,42.0,24.0,29.88,NW,315,7.0,8.0,51,0.00,,,0.00,TxWx,2013-02-14 17:00:00,
2013-02-14 12:05:00,42.0,24.0,29.88,NE,45,8.0,8.0,52,0.00,,,0.00,TxWx,2013-02-14 17:05:00,
2013-02-14 12:10:00,42.0,24.0,29.87,NNE,22,8.0,10.0,51,0.00,,,0.00,TxWx,2013-02-14 17:10:00,
2013-02-14 12:15:00,42.0,24.0,29.87,ENE,67,7.0,9.0,52,0.00,,,0.00,TxWx,2013-02-14 17:15:00,
2013-02-14 12:21:00,42.0,24.0,29.87,NNE,22,7.0,8.0,51,0.00,,,0.00,TxWx,2013-02-14 17:21:00,
2013-02-14 12:26:00,42.0,24.0,29.87,ENE,67,7.0,9.0,51,0.00,,,0.00,TxWx,2013-02-14 17:26:00,
2013-02-14 12:31:00,42.0,24.0,29.87,ENE,67,6.0,7.0,51,0.00,,,0.00,TxWx,2013-02-14 17:31:00,
2013-02-14 12:36:00,42.0,24.0,29.87,ENE,67,7.0,7.0,52,0.00,,,0.00,TxWx,2013-02-14 17:36:00,
2013-02-14 12:42:00,43.0,25.0,29.87,NNE,22,5.0,8.0,51,0.00,,,0.00,TxWx,2013-02-14 17:42:00,
2013-02-14 12:47:00,42.0,24.0,29.87,NE,45,9.0,10.0,51,0.00,,,0.00,TxWx,2013-02-14 17:47:00,
2013-02-14 12:52:00,42.0,24.0,29.86,ENE,67,5.0,5.0,51,0.00,,,0.00,TxWx,2013-02-14 17:52:00,
2013-02-14 12:57:00,43.0,25.0,29.86,ENE,67,2.0,3.0,51,0.00,,,0.00,TxWx,2013-02-14 17:57:00,
2013-02-14 13:03:00,43.0,25.0,29.86,NE,45,5.0,5.0,51,0.00,,,0.00,TxWx,2013-02-14 18:03:00,
2013-02-14 13:08:00,44.0,25.0,29.86,NE,45,6.0,8.0,50,0.00,,,0.00,TxWx,2013-02-14 18:08:00,
2013-02-14 13:13:00,43.0,24.0,29.86,NE,45,6.0,6.0,50,0.00,,,0.00,TxWx,2013-02-14 18:13:00,
2013-02-14 13:18:00,44.0,25.0,29.86,NE,45,3.0,4.0,49,0.00,,,0.00,TxWx,2013-02-14 18:18:00,
2013-02-14 13:23:00,44.0,25.0,29.86,East,90,4.0,4.0,50,0.00,,,0.00,TxWx,2013-02-14 18:23:00,
2013-02-14 13:28:00,43.0,24.0,29.87,NE,45,5.0,5.0,49,0.00,,,0.00,TxWx,2013-02-14 18:28:00,
2013-02-14 13:34:00,44.0,25.0,29.86,North,0,4.0,5.0,50,0.00,,,0.00,TxWx,2013-02-14 18:34:00,
2013-02-14 13:39:00,44.0,25.0,29.86,NNW,337,2.0,3.0,50,0.00,,,0.00,TxWx,2013-02-14 18:39:00,
2013-02-14 13:44:00,44.0,25.0,29.86,WNW,292,1.0,2.0,50,0.00,,,0.00,TxWx,2013-02-14 18:44:00,
2013-02-14 13:49:00,45.0,26.0,29.86,SSE,157,3.0,3.0,49,0.00,,,0.00,TxWx,2013-02-14 18:49:00,
2013-02-14 13:54:00,45.0,25.0,29.86,East,90,3.0,3.0,48,0.00,,,0.00,TxWx,2013-02-14 18:54:00,
2013-02-14 13:59:00,45.0,25.0,29.86,SSE,157,2.0,3.0,48,0.00,,,0.00,TxWx,2013-02-14 18:59:00,
2013-02-14 14:00:00,41.0,27.0,29.89,WNW,292,1.0,1.0,60,0.00,,,0.00,TxWx,2013-02-14 19:00:00,
2013-02-14 14:01:00,41.0,27.0,29.89,WNW,292,1.0,1.0,60,0.00,,,0.00,TxWx,2013-02-14 19:01:00,
2013-02-14 14:02:00,41.0,27.0,29.89,SSW,202,1.0,1.0,60,0.00,,,0.00,TxWx,2013-02-14 19:02:00,
2013-02-14 14:03:00,41.0,27.0,29.89,SSW,202,1.0,2.0,60,0.00,,,0.00,TxWx,2013-02-14 19:03:00,
2013-02-14 14:04:00,45.0,25.0,29.86,South,180,3.0,4.0,48,0.00,,,0.00,TxWx,2013-02-14 19:04:00,
2013-02-14 14:05:00,41.0,27.0,29.89,West,270,1.0,2.0,60,0.00,,,0.00,TxWx,2013-02-14 19:05:00,
2013-02-14 14:06:00,41.0,27.0,29.89,SE,135,0.0,1.0,60,0.00,,,0.00,TxWx,2013-02-14 19:06:00,
2013-02-14 14:07:00,41.0,27.0,29.89,South,180,1.0,2.0,60,0.00,,,0.00,TxWx,2013-02-14 19:07:00,
2013-02-14 14:08:00,41.0,27.0,29.89,SW,225,1.0,1.0,61,0.00,,,0.00,TxWx,2013-02-14 19:08:00,
2013-02-14 14:09:00,44.0,24.0,29.86,SSW,202,3.0,4.0,48,0.00,,,0.00,TxWx,2013-02-14 19:09:00,
2013-02-14 14:10:00,41.0,27.0,29.89,SE,135,1.0,1.0,61,0.00,,,0.00,TxWx,2013-02-14 19:10:00,
2013-02-14 14:11:00,41.0,27.0,29.89,SE,135,4.0,4.0,61,0.00,,,0.00,TxWx,2013-02-14 19:11:00,
2013-02-14 14:12:00,41.0,27.0,29.89,SSE,157,1.0,3.0,61,0.00,,,0.00,TxWx,2013-02-14 19:12:00,
2013-02-14 14:13:00,41.0,28.0,29.89,SE,135,0.0,1.0,61,0.00,,,0.00,TxWx,2013-02-14 19:13:00,
2013-02-14 14:14:00,41.0,28.0,29.89,ESE,112,0.0,1.0,61,0.00,,,0.00,TxWx,2013-02-14 19:14:00,
2013-02-14 14:15:00,44.0,25.0,29.86,ESE,112,3.0,4.0,48,0.00,,,0.00,TxWx,2013-02-14 19:15:00,
2013-02-14 14:16:00,41.0,28.0,29.89,SSE,157,1.0,1.0,61,0.00,,,0.00,TxWx,2013-02-14 19:16:00,
2013-02-14 14:17:00,41.0,28.0,29.89,East,90,0.0,1.0,61,0.00,,,0.00,TxWx,2013-02-14 19:17:00,
2013-02-14 14:18:00,41.0,28.0,29.89,SSW,202,4.0,4.0,61,0.00,,,0.00,TxWx,2013-02-14 19:18:00,
2013-02-14 14:19:00,41.0,28.0,29.89,SSE,157,3.0,3.0,61,0.00,,,0.00,TxWx,2013-02-14 19:19:00,
2013-02-14 14:20:00,44.0,25.0,29.86,SE,135,4.0,5.0,49,0.00,,,0.00,TxWx,2013-02-14 19:20:00,
2013-02-14 14:23:00,41.0,28.0,29.89,West,270,3.0,3.0,62,0.00,,,0.00,TxWx,2013-02-14 19:23:00,
2013-02-14 14:24:00,41.0,28.0,29.89,SSW,202,2.0,3.0,62,0.00,,,0.00,TxWx,2013-02-14 19:24:00,
2013-02-14 14:25:00,44.0,25.0,29.86,ESE,112,5.0,6.0,48,0.00,,,0.00,TxWx,2013-02-14 19:25:00,
2013-02-14 14:30:00,44.0,25.0,29.86,East,90,3.0,3.0,48,0.00,,,0.00,TxWx,2013-02-14 19:30:00,
2013-02-14 14:35:00,45.0,25.0,29.86,SE,135,3.0,3.0,48,0.00,,,0.00,TxWx,2013-02-14 19:35:00,
2013-02-14 14:41:00,44.0,24.0,29.86,South,180,5.0,5.0,48,0.00,,,0.00,TxWx,2013-02-14 19:41:00,
2013-02-14 14:46:00,45.0,25.0,29.86,SE,135,6.0,7.0,48,0.00,,,0.00,TxWx,2013-02-14 19:46:00,
2013-02-14 14:51:00,45.0,25.0,29.87,SSW,202,4.0,4.0,48,0.00,,,0.00,TxWx,2013-02-14 19:51:00,
2013-02-14 14:56:00,44.0,24.0,29.87,ESE,112,4.0,5.0,48,0.00,,,0.00,TxWx,2013-02-14 19:56:00,
2013-02-14 15:01:00,44.0,25.0,29.86,ENE,67,3.0,4.0,48,0.00,,,0.00,TxWx,2013-02-14 20:01:00,
2013-02-14 15:07:00,45.0,25.0,29.86,SE,135,3.0,5.0,48,0.00,,,0.00,TxWx,2013-02-14 20:07:00,
2013-02-14 15:12:00,45.0,25.0,29.87,ENE,67,3.0,5.0,48,0.00,,,0.00,TxWx,2013-02-14 20:12:00,
2013-02-14 15:17:00,45.0,25.0,29.87,SE,135,4.0,5.0,48,0.00,,,0.00,TxWx,2013-02-14 20:17:00,
2013-02-14 15:22:00,45.0,25.0,29.87,WSW,247,1.0,1.0,48,0.00,,,0.00,TxWx,2013-02-14 20:22:00,
2013-02-14 15:27:00,45.0,25.0,29.87,South,180,1.0,1.0,48,0.00,,,0.00,TxWx,2013-02-14 20:27:00,
2013-02-14 15:30:00,41.0,28.0,29.87,South,180,6.0,7.0,62,0.00,,,0.00,TxWx,2013-02-14 20:30:00,
2013-02-14 15:31:00,41.0,28.0,29.87,SSW,202,6.0,6.0,62,0.00,,,0.00,TxWx,2013-02-14 20:31:00,
2013-02-14 15:32:00,45.0,25.0,29.87,SSE,157,4.0,4.0,48,0.00,,,0.00,TxWx,2013-02-14 20:32:00,
2013-02-14 15:33:00,41.0,28.0,29.87,SSW,202,8.0,9.0,62,0.00,,,0.00,TxWx,2013-02-14 20:33:00,
2013-02-14 15:34:00,41.0,28.0,29.87,SW,225,9.0,9.0,62,0.00,,,0.00,TxWx,2013-02-14 20:34:00,
2013-02-14 15:37:00,46.0,26.0,29.87,South,180,3.0,3.0,47,0.00,,,0.00,TxWx,2013-02-14 20:37:00,
2013-02-14 15:38:00,41.0,28.0,29.87,SW,225,5.0,6.0,62,0.00,,,0.00,TxWx,2013-02-14 20:38:00,
2013-02-14 15:39:00,41.0,28.0,29.87,SSW,202,6.0,8.0,62,0.00,,,0.00,TxWx,2013-02-14 20:39:00,
2013-02-14 15:40:00,41.0,28.0,29.88,SSW,202,8.0,8.0,62,0.00,,,0.00,TxWx,2013-02-14 20:40:00,
2013-02-14 15:41:00,41.0,28.0,29.88,SW,225,12.0,12.0,62,0.00,,,0.00,TxWx,2013-02-14 20:41:00,
2013-02-14 15:42:00,46.0,26.0,29.87,South,180,2.0,3.0,47,0.00,,,0.00,TxWx,2013-02-14 20:42:00,
2013-02-14 15:43:00,41.0,28.0,29.88,SSW,202,8.0,10.0,62,0.00,,,0.00,TxWx,2013-02-14 20:43:00,
2013-02-14 15:44:00,41.0,28.0,29.88,WSW,247,7.0,8.0,62,0.00,,,0.00,TxWx,2013-02-14 20:44:00,
2013-02-14 15:45:00,41.0,28.0,29.88,SSW,202,8.0,9.0,62,0.00,,,0.00,TxWx,2013-02-14 20:45:00,
2013-02-14 15:47:00,46.0,25.0,29.87,SSW,202,5.0,5.0,46,0.00,,,0.00,TxWx,2013-02-14 20:47:00,
2013-02-14 15:48:00,41.0,28.0,29.88,SW,225,8.0,10.0,62,0.00,,,0.00,TxWx,2013-02-14 20:48:00,
2013-02-14 15:49:00,41.0,28.0,29.88,SSW,202,7.0,8.0,62,0.00,,,0.00,TxWx,2013-02-14 20:49:00,
2013-02-14 15:51:00,41.0,28.0,29.88,SSW,202,6.0,8.0,62,0.00,,,0.00,TxWx,2013-02-14 20:51:00,
2013-02-14 15:52:00,46.0,25.0,29.87,South,180,5.0,5.0,45,0.00,,,0.00,TxWx,2013-02-14 20:52:00,
2013-02-14 15:53:00,41.0,28.0,29.88,South,180,9.0,11.0,62,0.00,,,0.00,TxWx,2013-02-14 20:53:00,
2013-02-14 15:54:00,41.0,28.0,29.88,SSW,202,6.0,8.0,62,0.00,,,0.00,TxWx,2013-02-14 20:54:00,
2013-02-14 15:55:00,41.0,28.0,29.88,SSW,202,11.0,11.0,62,0.00,,,0.00,TxWx,2013-02-14 20:55:00,
2013-02-14 15:56:00,41.0,28.0,29.88,South,180,5.0,7.0,62,0.00,,,0.00,TxWx,2013-02-14 20:56:00,
2013-02-14 15:57:00,41.0,28.0,29.88,South,180,6.0,10.0,62,0.00,,,0.00,TxWx,2013-02-14 20:57:00,
2013-02-14 15:58:00,46.0,25.0,29.86,South,180,3.0,3.0,45,0.00,,,0.00,TxWx,2013-02-14 20:58:00,
2013-02-14 15:59:00,41.0,28.0,29.88,South,180,6.0,8.0,62,0.00,,,0.00,TxWx,2013-02-14 20:59:00,
2013-02-14 16:00:00,41.0,28.0,29.88,SSW,202,5.0,7.0,62,0.00,,,0.00,TxWx,2013-02-14 21:00:00,
2013-02-14 16:01:00,41.0,28.0,29.88,South,180,6.0,6.0,62,0.00,,,0.00,TxWx,2013-02-14 21:01:00,
2013-02-14 16:03:00,46.0,25.0,29.86,SSW,202,4.0,4.0,45,0.00,,,0.00,TxWx,2013-02-14 21:03:00,
2013-02-14 16:08:00,46.0,25.0,29.86,South,180,3.0,3.0,45,0.00,,,0.00,TxWx,2013-02-14 21:08:00,
2013-02-14 16:13:00,46.0,25.0,29.86,SE,135,4.0,4.0,45,0.00,,,0.00,TxWx,2013-02-14 21:13:00,
2013-02-14 16:18:00,46.0,25.0,29.86,South,180,2.0,3.0,45,0.00,,,0.00,TxWx,2013-02-14 21:18:00,
2013-02-14 16:23:00,46.0,25.0,29.86,SSE,157,3.0,3.0,45,0.00,,,0.00,TxWx,2013-02-14 21:23:00,
2013-02-14 16:28:00,46.0,25.0,29.86,SE,135,2.0,2.0,45,0.00,,,0.00,TxWx,2013-02-14 21:28:00,
2013-02-14 16:34:00,46.0,25.0,29.87,ESE,112,2.0,2.0,45,0.00,,,0.00,TxWx,2013-02-14 21:34:00,
2013-02-14 16:39:00,46.0,25.0,29.86,East,90,1.0,2.0,45,0.00,,,0.00,TxWx,2013-02-14 21:39:00,
2013-02-14 16:44:00,46.0,25.0,29.86,SE,135,2.0,3.0,45,0.00,,,0.00,TxWx,2013-02-14 21:44:00,
2013-02-14 16:49:00,46.0,25.0,29.86,SE,135,1.0,1.0,46,0.00,,,0.00,TxWx,2013-02-14 21:49:00,
2013-02-14 16:55:00,46.0,25.0,29.86,South,180,2.0,3.0,46,0.00,,,0.00,TxWx,2013-02-14 21:55:00,
2013-02-14 17:00:00,45.0,24.0,29.87,SSE,157,1.0,1.0,46,0.00,,,0.00,TxWx,2013-02-14 22:00:00,
2013-02-14 17:05:00,45.0,24.0,29.87,ENE,67,1.0,1.0,46,0.00,,,0.00,TxWx,2013-02-14 22:05:00,
2013-02-14 17:10:00,45.0,24.0,29.87,East,90,1.0,1.0,46,0.00,,,0.00,TxWx,2013-02-14 22:10:00,
2013-02-14 17:15:00,45.0,25.0,29.88,SW,225,0.0,1.0,47,0.00,,,0.00,TxWx,2013-02-14 22:15:00,
2013-02-14 17:21:00,45.0,25.0,29.88,South,180,1.0,1.0,47,0.00,,,0.00,TxWx,2013-02-14 22:21:00,
2013-02-14 17:26:00,44.0,24.0,29.88,SSE,157,0.0,1.0,48,0.00,,,0.00,TxWx,2013-02-14 22:26:00,
2013-02-14 17:31:00,44.0,25.0,29.88,SSE,157,1.0,1.0,48,0.00,,,0.00,TxWx,2013-02-14 22:31:00,
2013-02-14 17:36:00,44.0,25.0,29.88,South,180,1.0,1.0,48,0.00,,,0.00,TxWx,2013-02-14 22:36:00,
2013-02-14 17:41:00,43.0,24.0,29.88,South,180,1.0,2.0,49,0.00,,,0.00,TxWx,2013-02-14 22:41:00,
2013-02-14 17:46:00,43.0,24.0,29.88,SSW,202,1.0,1.0,49,0.00,,,0.00,TxWx,2013-02-14 22:46:00,
2013-02-14 17:52:00,43.0,25.0,29.88,SSE,157,0.0,1.0,50,0.00,,,0.00,TxWx,2013-02-14 22:52:00,
2013-02-14 17:57:00,42.0,24.0,29.88,WSW,247,1.0,1.0,50,0.00,,,0.00,TxWx,2013-02-14 22:57:00,
2013-02-14 18:02:00,42.0,24.0,29.88,South,180,1.0,1.0,51,0.00,,,0.00,TxWx,2013-02-14 23:02:00,
2013-02-14 18:07:00,41.0,24.0,29.88,South,180,1.0,1.0,52,0.00,,,0.00,TxWx,2013-02-14 23:07:00,
2013-02-14 18:12:00,41.0,24.0,29.88,SW,225,1.0,1.0,53,0.00,,,0.00,TxWx,2013-02-14 23:12:00,
2013-02-14 18:17:00,41.0,24.0,29.88,SW,225,1.0,1.0,53,0.00,,,0.00,TxWx,2013-02-14 23:17:00,
2013-02-14 18:22:00,40.0,24.0,29.88,West,270,1.0,1.0,54,0.00,,,0.00,TxWx,2013-02-14 23:22:00,
2013-02-14 18:27:00,40.0,24.0,29.88,North,0,1.0,1.0,55,0.00,,,0.00,TxWx,2013-02-14 23:27:00,
2013-02-14 18:33:00,40.0,24.0,29.88,NNE,22,1.0,1.0,56,0.00,,,0.00,TxWx,2013-02-14 23:33:00,
2013-02-14 18:38:00,40.0,25.0,29.88,NNE,22,1.0,2.0,56,0.00,,,0.00,TxWx,2013-02-14 23:38:00,
2013-02-14 18:43:00,40.0,25.0,29.88,NE,45,1.0,1.0,57,0.00,,,0.00,TxWx,2013-02-14 23:43:00,
2013-02-14 18:48:00,40.0,25.0,29.89,ENE,67,0.0,1.0,58,0.00,,,0.00,TxWx,2013-02-14 23:48:00,
2013-02-14 18:53:00,39.0,24.0,29.89,WSW,247,0.0,1.0,58,0.00,,,0.00,TxWx,2013-02-14 23:53:00,
2013-02-14 18:59:00,39.0,24.0,29.88,SSW,202,0.0,1.0,58,0.00,,,0.00,TxWx,2013-02-14 23:59:00,
2013-02-14 19:04:00,39.0,25.0,29.88,SE,135,0.0,1.0,59,0.00,,,0.00,TxWx,2013-02-15 00:04:00,
2013-02-14 19:09:00,39.0,25.0,29.88,SSE,157,1.0,1.0,59,0.00,,,0.00,TxWx,2013-02-15 00:09:00,
2013-02-14 19:14:00,39.0,25.0,29.88,SSE,157,0.0,1.0,59,0.00,,,0.00,TxWx,2013-02-15 00:14:00,
2013-02-14 19:19:00,39.0,25.0,29.88,South,180,1.0,1.0,60,0.00,,,0.00,TxWx,2013-02-15 00:19:00,
2013-02-14 19:25:00,39.0,25.0,29.88,South,180,3.0,3.0,60,0.00,,,0.00,TxWx,2013-02-15 00:25:00,
2013-02-14 19:30:00,41.0,27.0,29.88,South,180,2.0,3.0,59,0.00,,,0.00,TxWx,2013-02-15 00:30:00,
2013-02-14 19:35:00,41.0,26.0,29.88,SSW,202,1.0,2.0,57,0.00,,,0.00,TxWx,2013-02-15 00:35:00,
2013-02-14 19:40:00,42.0,26.0,29.88,South,180,3.0,3.0,56,0.00,,,0.00,TxWx,2013-02-15 00:40:00,
2013-02-14 19:46:00,42.0,26.0,29.88,SW,225,3.0,3.0,56,0.00,,,0.00,TxWx,2013-02-15 00:46:00,
2013-02-14 19:51:00,42.0,26.0,29.89,SSW,202,4.0,4.0,56,0.00,,,0.00,TxWx,2013-02-15 00:51:00,
2013-02-14 19:56:00,42.0,26.0,29.89,South,180,3.0,5.0,55,0.00,,,0.00,TxWx,2013-02-15 00:56:00,
2013-02-14 20:01:00,42.0,26.0,29.89,SSW,202,3.0,5.0,56,0.00,,,0.00,TxWx,2013-02-15 01:01:00,
2013-02-14 20:06:00,41.0,25.0,29.89,SSW,202,5.0,5.0,56,0.00,,,0.00,TxWx,2013-02-15 01:06:00,
2013-02-14 20:11:00,41.0,25.0,29.89,South,180,5.0,5.0,56,0.00,,,0.00,TxWx,2013-02-15 01:11:00,
2013-02-14 20:16:00,41.0,26.0,29.89,SSW,202,5.0,5.0,57,0.00,,,0.00,TxWx,2013-02-15 01:16:00,
2013-02-14 20:21:00,41.0,26.0,29.89,SSW,202,3.0,4.0,57,0.00,,,0.00,TxWx,2013-02-15 01:21:00,
2013-02-14 20:27:00,41.0,26.0,29.88,South,180,3.0,5.0,57,0.00,,,0.00,TxWx,2013-02-15 01:27:00,
2013-02-14 20:32:00,41.0,26.0,29.88,South,180,4.0,4.0,57,0.00,,,0.00,TxWx,2013-02-15 01:32:00,
2013-02-14 20:37:00,42.0,27.0,29.88,South,180,1.0,2.0,57,0.00,,,0.00,TxWx,2013-02-15 01:37:00,
2013-02-14 20:42:00,42.0,27.0,29.88,SSW,202,3.0,4.0,57,0.00,,,0.00,TxWx,2013-02-15 01:42:00,
2013-02-14 20:47:00,42.0,26.0,29.88,South,180,3.0,3.0,56,0.00,,,0.00,TxWx,2013-02-15 01:47:00,
2013-02-14 20:52:00,42.0,26.0,29.89,South,180,3.0,4.0,56,0.00,,,0.00,TxWx,2013-02-15 01:52:00,
2013-02-14 20:57:00,42.0,26.0,29.89,WSW,247,2.0,2.0,56,0.00,,,0.00,TxWx,2013-02-15 01:57:00,
2013-02-14 21:02:00,42.0,26.0,29.88,South,180,2.0,2.0,56,0.00,,,0.00,TxWx,2013-02-15 02:02:00,
2013-02-14 21:08:00,42.0,27.0,29.89,South,180,3.0,3.0,57,0.00,,,0.00,TxWx,2013-02-15 02:08:00,
2013-02-14 21:13:00,42.0,27.0,29.89,South,180,3.0,5.0,57,0.00,,,0.00,TxWx,2013-02-15 02:13:00,
2013-02-14 21:18:00,42.0,27.0,29.89,SSW,202,3.0,3.0,57,0.00,,,0.00,TxWx,2013-02-15 02:18:00,
2013-02-14 21:24:00,42.0,27.0,29.89,South,180,3.0,3.0,57,0.00,,,0.00,TxWx,2013-02-15 02:24:00,
2013-02-14 21:29:00,42.0,27.0,29.89,South,180,1.0,2.0,57,0.00,,,0.00,TxWx,2013-02-15 02:29:00,
2013-02-14 21:34:00,42.0,27.0,29.89,South,180,3.0,5.0,57,0.00,,,0.00,TxWx,2013-02-15 02:34:00,
2013-02-14 21:39:00,42.0,27.0,29.89,South,180,3.0,4.0,57,0.00,,,0.00,TxWx,2013-02-15 02:39:00,
2013-02-14 21:44:00,42.0,27.0,29.88,South,180,4.0,5.0,57,0.00,,,0.00,TxWx,2013-02-15 02:44:00,
2013-02-14 21:50:00,42.0,27.0,29.89,South,180,3.0,3.0,58,0.00,,,0.00,TxWx,2013-02-15 02:50:00,
2013-02-14 21:55:00,42.0,27.0,29.89,South,180,4.0,5.0,58,0.00,,,0.00,TxWx,2013-02-15 02:55:00,
2013-02-14 22:00:00,42.0,27.0,29.88,SSW,202,8.0,9.0,58,0.00,,,0.00,TxWx,2013-02-15 03:00:00,
2013-02-14 22:05:00,42.0,27.0,29.89,SSW,202,7.0,8.0,58,0.00,,,0.00,TxWx,2013-02-15 03:05:00,
2013-02-14 22:10:00,43.0,28.0,29.89,SSW,202,5.0,6.0,57,0.00,,,0.00,TxWx,2013-02-15 03:10:00,
2013-02-14 22:16:00,43.0,28.0,29.89,South,180,5.0,6.0,57,0.00,,,0.00,TxWx,2013-02-15 03:16:00,
2013-02-14 22:21:00,43.0,28.0,29.89,SSW,202,5.0,6.0,57,0.00,,,0.00,TxWx,2013-02-15 03:21:00,
2013-02-14 22:26:00,43.0,28.0,29.89,South,180,5.0,6.0,57,0.00,,,0.00,TxWx,2013-02-15 03:26:00,
2013-02-14 22:31:00,43.0,28.0,29.89,SSE,157,3.0,5.0,57,0.00,,,0.00,TxWx,2013-02-15 03:31:00,
2013-02-14 22:36:00,43.0,28.0,29.89,SSE,157,2.0,3.0,57,0.00,,,0.00,TxWx,2013-02-15 03:36:00,
2013-02-14 22:42:00,42.0,27.0,29.89,South,180,2.0,3.0,58,0.00,,,0.00,TxWx,2013-02-15 03:42:00,
2013-02-14 22:47:00,42.0,27.0,29.89,South,180,6.0,6.0,59,0.00,,,0.00,TxWx,2013-02-15 03:47:00,
2013-02-14 22:52:00,42.0,27.0,29.88,SSE,157,6.0,6.0,58,0.00,,,0.00,TxWx,2013-02-15 03:52:00,
2013-02-14 22:57:00,42.0,27.0,29.89,South,180,3.0,4.0,59,0.00,,,0.00,TxWx,2013-02-15 03:57:00,
2013-02-14 23:03:00,42.0,27.0,29.88,SSW,202,6.0,7.0,59,0.00,,,0.00,TxWx,2013-02-15 04:03:00,
2013-02-14 23:08:00,42.0,28.0,29.88,South,180,5.0,7.0,59,0.00,,,0.00,TxWx,2013-02-15 04:08:00,
2013-02-14 23:13:00,42.0,28.0,29.88,South,180,3.0,3.0,59,0.00,,,0.00,TxWx,2013-02-15 04:13:00,
2013-02-14 23:19:00,42.0,28.0,29.89,SSW,202,5.0,6.0,60,0.00,,,0.00,TxWx,2013-02-15 04:19:00,
2013-02-14 23:24:00,42.0,28.0,29.89,South,180,1.0,1.0,60,0.00,,,0.00,TxWx,2013-02-15 04:24:00,
2013-02-14 23:29:00,42.0,28.0,29.89,SW,225,1.0,2.0,60,0.00,,,0.00,TxWx,2013-02-15 04:29:00,
2013-02-14 23:34:00,41.0,27.0,29.89,SSW,202,1.0,2.0,60,0.00,,,0.00,TxWx,2013-02-15 04:34:00,
2013-02-14 23:39:00,41.0,27.0,29.89,South,180,8.0,8.0,60,0.00,,,0.00,TxWx,2013-02-15 04:39:00,
2013-02-14 23:44:00,41.0,27.0,29.89,SSW,202,1.0,2.0,60,0.00,,,0.00,TxWx,2013-02-15 04:44:00,
2013-02-14 23:50:00,41.0,27.0,29.89,NW,315,2.0,2.0,60,0.00,,,0.00,TxWx,2013-02-15 04:50:00,
2013-02-14 23:55:00,42.0,28.0,29.89,WNW,292,3.0,3.0,60,0.00,,,0.00,TxWx,2013-02-15 04:55:00,